Regional Weather Roundup
Issued by NWS

Home | Current Version | Previous Version | Text Only | Print | Product List | Glossary On
Versions: 1 2 3 4 5 6 7 8 9 10 11 12 13 14 15 16 17 18 19 20 21 22 23 24 25 26 27 28 29 30 31 32 33 34 35 36 37 38 39 40 41 42 43 44 45 46 47 48 49 50
000
ASUS44 KLUB 040301
RWRTX
WEST TEXAS WEATHER ROUNDUP
NATIONAL WEATHER SERVICE LUBBOCK TX
1000 PM CDT FRI JUL 03 2015

NOTE: "FAIR" INDICATES FEW OR NO CLOUDS BELOW 12,000 FEET WITH NO
SIGNIFICANT WEATHER AND/OR OBSTRUCTIONS TO VISIBILITY.

TXZ004-006>008-010-012-014-016-OKZ002-040400-
TEXAS PANHANDLE/OKLAHOMA PANHANDLE

CITY           SKY/WX    TMP DP  RH WIND       PRES   REMARKS
AMARILLO       LGT RAIN  69  63  81 NE17G23   30.11R
BORGER         CLOUDY    72  59  63 S12       30.00F
CANADIAN       CLEAR     74  67  79 CALM      29.97S
DALHART        CLOUDY    70  63  78 SE10      30.10S
DUMAS          CLOUDY    65  63  93 S9        30.07F
GUYMON         CLEAR     69  61  75 SE5       30.02R
$$

TXZ026-029-035-045-048-040400-
SOUTHERN PANHANDLE/SOUTH PLAINS/ROLLING PLAINS

CITY           SKY/WX    TMP DP  RH WIND       PRES   REMARKS
CHILDRESS      CLOUDY    78  66  66 S6        29.96R
LUBBOCK        CLOUDY    77  64  64 SE9       30.00R
$$

TXZ052-054-060>062-072-078-127-140-154-169-040400-
PERMIAN BASIN/CONCHO VALLEY/BIG COUNTRY/EDWARDS PLATEAU

CITY           SKY/WX    TMP DP  RH WIND       PRES   REMARKS
ABILENE        CLEAR     80  64  58 SE9       29.95R
JUNCTION       PTCLDY    80  65  59 SE9       29.97R
MIDLAND        CLOUDY    81  61  50 SE9       29.97R
ODESSA         MOCLDY    80  61  52 SE7       29.99R
SAN ANGELO     PTCLDY    82  62  50 SE7       29.95R
WINK           MOCLDY    83  61  47 SE7       29.95R
$$

TXZ055-058-074-075-080-082-040400-
FAR WEST/SOUTHWEST MOUNTAINS/TRANS PECOS

CITY           SKY/WX    TMP DP  RH WIND       PRES   REMARKS
ALPINE         MOCLDY    76  60  58 SE9G17    30.11R
DRYDEN           N/A     83  65  54 E6        29.93R
EL PASO        MOCLDY    85  57  38 E14       29.97R
FORT STOCKTON  MOCLDY    79  61  53 SE14      29.97R
GUADALUPE PASS MOCLDY    72  58  61 NE21      30.13R
MARFA          CLEAR    N/A N/A N/A NE6       30.09R
$$

TXZ014-016-019-021>030-083-040400
TEXAS TECH WEST TEXAS MESONET/TEXAS PANHANDLE/NORTHERN SOUTH PLAINS

CITY           SKY/WX    TMP DP  RH WIND       PRES   REMARKS
ABERNATHY 5ENE   N/A     76  64  67 SE7       30.02R
AMARILLO 9NNE    N/A     64  61  92 W14       30.07S
AMARILLO 7SSE  LGT RAIN  69  65  88 NE23      30.11R
AMHERST 1NE      N/A     76  64  65 S6        30.03R
BOOTLEG 11WNW    N/A     72  59  64 S7        30.10R
CANADIAN 6E      N/A     70  65  85 E7        29.96S
CAPROCK CYN SP   N/A     78  67  69 SE7       29.99R
CHILDRESS 2NNE   N/A     77  65  65 E8        29.96S
CLARENDON 2WSW   N/A     78  65  64 NE10      30.02R
CLAUDE 12SW      N/A     69  64  82 N17       30.07R
DIMMITT 2NE      N/A     74  60  61 E5        30.05R
FLOYDADA 2NNE    N/A     75  64  67 SE7       30.01R
FRIONA 2NE       N/A     71  60  66 SE5       30.06R
GOODLETT 3W      N/A     77  63  62 NE10      29.95R
HART 3N          N/A     74  63  69 E8        30.04R
HEREFORD 2NW     N/A     78  57  48 SE3       30.05R
MCLEAN 1E        N/A     73  66  79 E6        29.99S
MEMPHIS 1NE      N/A     78  66  65 NE7       29.97R
MULESHOE 2SSW    N/A     73  65  76 S6        30.04R
OLTON 6S         N/A     75  64  67 SE7       30.02R
PALO DURO SP     N/A     68  63  83 N10       30.09R
PAMPA 2E         N/A     73  67  80 SE6       30.01R
PLAINVIEW 1S     N/A     79  65  63 SE5       30.01R
SILVERTON 7ESE   N/A     76  65  68 E7        30.02R
TULIA 2ENE       N/A     75  61  60 E7        30.03R
TURKEY 2WSW      N/A     82  66  57 E5        29.97R
UMBARGER 3NNE    N/A     69  60  73 NE23      30.09R
$$

TXZ033>036-039>041-045>048-040400
TEXAS TECH WEST TEXAS MESONET/SOUTH PLAINS

CITY           SKY/WX    TMP DP  RH WIND       PRES   REMARKS
AIKEN 3WSW       N/A     76  65  69 SE6       30.03R
ANDREWS 2NE      N/A     80  60  50 SE6       30.00R
ANTON 6SSW       N/A     78  64  62 SE9       30.01R
BROWNFIELD 2S    N/A     76  61  58 E7        30.01R
DENVR CTY 7WNW   N/A     70  64  82 W2        30.02R
GAIL 2ESE        N/A     77  63  62 SE7       29.96S
LAMESA 2SE       N/A     79  62  55 E7        29.99S
LEVELLAND 4S     N/A     78  60  55 SE10      30.01S
LUBBOCK 3WNW     N/A     78  62  58 SE7       30.01R
MORTON 1ENE      N/A     75  63  67 S3        30.03R
ODONNELL 1N      N/A     78  60  54 E6        30.00R
PLAINS 3N        N/A     70  67  90 NE2       30.03R
RALLS 1SE        N/A     75  64  68 S7        30.01S
REESE CENTER     N/A     77  62  61 SE8       30.01R
SEAGRAVES 1SW    N/A     79  61  52 E6        30.00R
SEMINOLE 2NNE    N/A     77  60  55 SE7       30.00R
SLATON 2NE       N/A     75  63  65 SE7       30.00R
SNYDER 3E        N/A     76  64  66 SE8       29.96S
SUNDOWN 8SW      N/A     70  62  76 SE2       30.02S
TAHOKA 3NNE      N/A     76  62  63 SE5       29.99S
WOLFFORTH 6SSW   N/A     77  62  60 SE8       30.01S
$$

TXZ031-032-036>038-042>044-040400-
TEXAS TECH WEST TEXAS MESONET/ROLLING PLAINS

CITY           SKY/WX    TMP DP  RH WIND       PRES   REMARKS
ASPERMONT 3NE    N/A     78  66  65 SE5       29.94R
FLUVANNA 3WNW    N/A     76  62  62 SE6       29.97S
GRAHAM 5SSW      N/A     78  63  61 SE7       29.98S
GUTHRIE 10WSW    N/A     81  64  56 SE5       29.95R
HASKELL 1NW      N/A     82  63  52 E5        29.93R
JAYTON 1SSE      N/A     76  65  67 SE5       29.95R
KNOX CITY 3NW    N/A     80  64  58 N3        29.93R
LK A HENRY 1NW   N/A     79  65  61 S2        29.96R
NORTHFIELD 1S    N/A     78  63  60 SE15G25   29.96R
ODELL 4ENE       N/A     73  69  85 SE6       29.92F
PADUCAH 10SW     N/A     79  65  64 E13       29.96R
POST 1NE         N/A     78  63  61 S5        29.97R
RRING SPRGS 3N   N/A     75  66  73 S5        29.99R
SEYMOUR 3NW      N/A     83  70  65 SW1       29.91S
SPUR 1W          N/A     78  65  63 SE5       29.96R
WEINERT 2NNE     N/A     81  67  62 SE6       29.93S
WHITE RVR 6NE    N/A     77  65  65 SE5       29.98R
$$

TXZ052-054-060>062-072-078-127-140-154-169-040400-
TEXAS TECH WEST TEXAS MESONET/PERMIAN BASIN/
CONCHO VALLEY/BIG COUNTRY/EDWARDS PLATEAU

CITY           SKY/WX    TMP DP  RH WIND       PRES   REMARKS
COYANOSA 2N      N/A     82  61  48 E7        29.94S
JUNCTION 1SSW    N/A     80  65  61 SE3       29.97R
MERTZON 3NNE     N/A     78  63  60 S5        29.97R
SAN ANGELO 7NW   N/A     80  62  54 SE7       29.95R
STRLNG CT 4WSW   N/A     81  60  49 SE5       29.97R
ST LAWRNCE 5SW   N/A     79  61  53 SE8       29.98R
SWEETWATR 11SW   N/A     75  66  75 SE6       29.99S
WALL 1E          N/A     82  60  46 SE7       29.96R
$$

TXZ055-058-074-075-080-082-040400-
TEXAS TECH WEST TEXAS MESONET/FAR WEST/SOUTHWEST MOUNTAINS/TRANS PECOS

CITY           SKY/WX    TMP DP  RH WIND       PRES   REMARKS
PRSMN GAP BBNP   N/A     82  64  53 N17       29.93R
$$


USA.gov is the U.S. government's official web portal to all federal, state and local government web resources and services.